UPSat (42716 NORAD) Tracking and Keplerian Element Data

This shows tracking and keplerian element data for the satellite.

Feedback or suggestion? Click here.




ElementValue
Catalog42716
NameUPSat
Epoch Orbit8540
Epoch Day316.95463152
Epoch Year2018
RAAN291.3881
Inclination51.6101
Eccentricity0.0002187
Argument of Perigee209.9477
Mean Anonmoly150.8621
Mean Motion16.50348
Decay Rate0.25568573
L11 42716U 98067LX 18316.95463152 .25568573 12659-4 27921-3 0 9996
L22 42716 51.6101 291.3881 0002187 209.9477 150.8621 16.50348000 85401



Live tracking and technical data element details for UPSat (NORAD 42716). UPSat can be tracked NOW for your location showing map with azimuth and elevation plus other details from your city location.







IsCatalogInMostPopularTable: catalog: 42716, numindb: 692
Update: records affected: 1



GetName: 42716 UPSat

Hit Count: updated at: Mon, 13 Jan 2025 20:43:09 GMT